[[{"header":{"parameterUnit":"m.s-1","parameterCategory":1,"la1":30.2992,"la2":30.254,"lo1":-89.0895,"lo2":-89.0443,"dy":0.0025,"dx":0.0025,"nx":19,"ny":19,"refTime":"2026-04-04T21:00:00:Z","depth":0,"parameterNumber":2,"parameterNumberName":"U-component_of_WINDS"},"data":[0,0,0,2.2972,2.2972,2.2976,2.2976,2.2986,2.2986,0,0,0,0,0,0,0,0,0,0,0,2.2974,2.2975,2.2972,2.2972,2.2976,2.2976,2.2986,2.2986,0,0,0,0,0,0,0,0,0,0,0,2.2974,2.2975,2.2975,2.2972,2.2976,2.2976,2.2986,2.2981,0,0,0,0,0,0,0,0,0,0,2.2977,2.2982,2.2975,2.2975,2.2972,2.2976,2.2976,2.2981,2.2982,2.2987,0,2.2992,0,2.2989,2.2987,2.2987,0,0,0,2.297,2.2982,2.298,2.2975,2.2972,2.2976,2.2973,2.2981,2.2982,2.2988,2.2992,2.2993,2.299,2.2987,2.2987,2.3027,2.3027,0,0,2.297,2.2977,2.2979,2.298,2.298,2.2973,2.2974,2.2982,2.2987,2.2992,2.2993,2.299,2.2987,2.2987,2.3027,2.3027,0,0,0,2.2971,2.2977,2.2974,2.298,2.298,2.2974,2.2974,2.2987,2.2985,2.2993,2.299,2.2987,2.2988,2.3026,2.3027,2.305,0,0,0,2.297,2.2978,2.2975,2.2979,2.298,2.2984,2.2979,2.2985,2.2986,2.299,2.2987,2.2988,2.3026,2.3026,2.3048,2.306,0,0,0,2.2973,2.2978,2.298,2.2979,2.2981,2.2983,2.2982,2.2985,2.2984,2.2987,2.2988,2.3026,2.3026,2.3047,2.3058,2.3073,0,0,0,2.2978,2.2999,2.298,2.3003,2.2981,2.2997,2.2982,2.2994,2.2999,2.2988,2.3026,2.3027,2.3047,2.3056,2.3072,2.3088,2.3095,0,0,2.3009,2.3003,2.3016,2.2999,2.3021,2.2996,2.3021,2.3019,2.3012,2.3022,2.3023,2.3049,2.3057,2.3073,2.3131,2.3137,0,0,0,2.3029,2.3038,2.3042,2.3048,2.3047,2.3047,2.304,2.3039,2.3048,2.3019,2.3058,2.3063,2.3071,2.3079,2.3084,2.3091,2.303,2.303,2.303,2.3084,2.3075,2.3095,2.3086,2.3092,2.3085,2.3089,2.3087,2.3075,2.3084,2.3088,2.3125,2.3134,2.3137,2.3145,2.3095,2.3095,2.3095,2.3095,2.313,2.3142,2.3126,2.3141,2.3131,2.3143,2.3137,2.3128,2.3139,2.3121,2.3128,2.3111,2.3144,2.315,2.3097,2.3096,2.3096,2.3096,2.3096,2.3166,2.317,2.3169,2.3177,2.3184,2.3173,2.3184,2.3174,2.3165,2.3172,2.3175,2.3174,2.3174,2.3174,2.3174,2.3174,2.3174,2.3174,2.3174,2.3205,2.3202,2.3213,2.3213,2.3216,2.3218,2.3211,2.3214,2.3214,2.3206,2.3206,2.3194,2.3148,2.3138,2.3176,2.3176,2.3175,2.3175,2.3175,2.3257,2.3243,2.3259,2.3262,2.3262,2.3271,2.3257,2.3263,2.3263,2.3269,2.3255,2.3223,2.3217,2.3213,2.3204,2.3257,2.3257,2.3257,2.3257,2.3288,2.3284,2.3298,2.3303,2.3307,2.3297,2.3316,2.3311,2.3303,2.3303,2.3293,2.3281,2.3277,2.3273,2.3267,2.3259,2.3325,2.3325,2.3325,2.332,2.3316,2.3334,2.3327,2.3326,2.3326,2.3344,2.3351,2.3339,2.3328,2.3303,2.33,2.3279,2.3273,2.3262,2.3254,2.3239,0,0]},{"header":{"parameterUnit":"m.s-1","parameterCategory":1,"la1":30.2992,"la2":30.254,"lo1":-89.0895,"lo2":-89.0443,"dy":0.0025,"dx":0.0025,"nx":19,"ny":19,"refTime":"2026-04-04T21:00:00:Z","depth":0,"parameterNumber":3,"parameterNumberName":"V-component_of_WINDS"},"data":[0,0,0,-0.0149,-0.0145,0.0063,0.0064,0.0323,0.0325,0,0,0,0,0,0,0,0,0,0,0,-0.0217,-0.0216,-0.0149,-0.0144,0.0063,0.0064,0.0322,0.0325,0,0,0,0,0,0,0,0,0,0,0,-0.0218,-0.0216,-0.0214,-0.0143,0.0062,0.0064,0.0322,0.0168,0,0,0,0,0,0,0,0,0,0,-0.0031,-0.0102,-0.0217,-0.0214,-0.0142,0.0062,0.0064,0.0161,0.0178,0.0225,0,0.0262,0,0.0297,0.0341,0.0342,0,0,0,-0.0138,-0.0116,-0.0055,-0.0214,-0.0141,0.0062,-0.0029,0.0171,0.019,0.0247,0.0266,0.0276,0.0301,0.0343,0.0344,0.0584,0.0584,0,0,-0.0149,-0.0182,-0.0068,-0.0043,-0.0079,-0.0036,-0.0023,0.0182,0.0202,0.0267,0.0282,0.0305,0.0345,0.0347,0.0583,0.0584,0,0,0,-0.0186,-0.0191,-0.0134,-0.0054,-0.0016,-0.003,-0.0015,0.0193,0.0214,0.0285,0.0309,0.0346,0.0349,0.0582,0.0583,0.0589,0,0,0,-0.0193,-0.0212,-0.0139,-0.0157,-0.002,0.009,-0.0009,0.02,0.0224,0.0307,0.0346,0.0352,0.0581,0.0583,0.0587,0.0599,0,0,0,-0.0228,-0.0216,-0.019,-0.016,-0.0073,0.0088,0.0121,0.0206,0.0238,0.0343,0.0352,0.0581,0.0582,0.0586,0.0597,0.0652,0,0,0,-0.0274,-0.0184,-0.019,-0.008,-0.0075,0.0088,0.012,0.0244,0.0334,0.0347,0.0581,0.0583,0.0585,0.0595,0.065,0.0694,0.0708,0,0,-0.0178,-0.0173,-0.0106,-0.0106,0.0048,0.0059,0.0216,0.0333,0.0376,0.0513,0.0519,0.0588,0.0596,0.0652,0.0799,0.081,0,0,0,-0.0087,-0.0039,0.0009,0.0091,0.0178,0.0255,0.035,0.0393,0.051,0.0438,0.0624,0.063,0.0664,0.0686,0.0696,0.0728,0.0591,0.0591,0.0591,0.0004,0.0048,0.0163,0.0232,0.0311,0.0405,0.0474,0.0549,0.0576,0.0618,0.066,0.0743,0.0768,0.0775,0.0808,0.0685,0.0685,0.0685,0.0685,0.0149,0.0224,0.0251,0.0371,0.0419,0.0523,0.0617,0.0631,0.0736,0.0716,0.0748,0.0724,0.0786,0.0817,0.0686,0.0686,0.0686,0.0686,0.0686,0.0215,0.0258,0.0305,0.0425,0.0514,0.0582,0.0679,0.072,0.076,0.0792,0.0841,0.0841,0.0847,0.0811,0.0812,0.0812,0.0812,0.0813,0.0813,0.0265,0.0317,0.0392,0.0489,0.0546,0.0625,0.0719,0.0777,0.0852,0.0875,0.0876,0.0898,0.0782,0.0753,0.0817,0.0817,0.0816,0.0816,0.0815,0.0399,0.0374,0.049,0.0546,0.0663,0.0747,0.0796,0.091,0.0964,0.1011,0.1025,0.0932,0.0942,0.0935,0.0912,0.1013,0.1013,0.1013,0.1014,0.0456,0.0462,0.0589,0.0675,0.0765,0.0819,0.0952,0.1024,0.1097,0.1134,0.1124,0.1096,0.1086,0.1102,0.1092,0.1071,0.1211,0.1211,0.1211,0.0541,0.0557,0.0661,0.0726,0.082,0.09,0.1025,0.1126,0.1204,0.122,0.1164,0.1155,0.111,0.1092,0.111,0.1093,0.1055,0,0]}]]